KC5AYO Weather Reports


time (UTC)temp
C
wind
direction
speed
KPH
gust
KPH
rain 1hr
cm
rain 24hr
cm
rain mn
cm
humidity
%
barometer
mb
20260906080549 23 355 0.0 3.2 0.00 0.00 0.00 91 1012.0
20260906080046 23 75 0.0 1.6 0.00 0.00 0.00 91 1011.9
20260906075546 23 355 0.0 0.0 0.00 0.00 0.00 91 1011.9
20260906075046 23 76 0.0 0.0 0.00 0.00 0.00 92 1011.9
20260906074548 23 5 0.0 3.2 0.00 0.00 0.00 92 1012.0
20260906074046 23 340 0.0 3.2 0.00 0.00 0.00 91 1011.9
20260906073546 23 348 0.0 3.2 0.00 0.00 0.00 92 1011.9
20260906073047 23 360 0.0 3.2 0.00 0.00 0.00 91 1012.0
20260906072549 23 5 0.0 3.2 0.00 0.00 0.00 92 1011.9
20260906072046 23 360 0.0 3.2 0.00 0.00 0.00 92 1012.0
20260906071545 23 9 0.0 3.2 0.00 0.00 0.00 91 1011.9
20260906071045 23 360 0.0 0.0 0.00 0.00 0.00 92 1011.9
20260906070545 23 22 0.0 0.0 0.00 0.00 0.00 92 1012.0
20260906070044 23 10 0.0 0.0 0.00 0.00 0.00 92 1011.9
20260906065548 23 9 0.0 0.0 0.00 0.00 0.00 92 1011.9
20260906065044 23 9 0.0 0.0 0.00 0.00 0.00 91 1011.9
20260906064543 23 9 0.0 0.0 0.00 0.00 0.00 91 1012.0
20260906064044 23 9 0.0 0.0 0.00 0.00 0.00 91 1012.0
20260906063547 23 10 0.0 0.0 0.00 0.00 0.00 91 1011.9
20260906063043 23 10 0.0 0.0 0.00 0.00 0.00 91 1012.0
20260906062544 23 23 0.0 3.2 0.00 0.00 0.00 92 1012.1
20260906062044 23 9 0.0 3.2 0.00 0.00 0.00 91 1012.1
20260906061542 23 22 0.0 1.6 0.00 0.00 0.00 91 1012.1
20260906061041 23 19 0.0 3.2 0.00 0.00 0.00 91 1012.1
20260906060541 23 30 0.0 3.2 0.00 0.00 0.00 91 1012.1
20260906055541 23 30 0.0 3.2 0.00 0.00 0.00 90 1012.1
20260906055041 23 355 0.0 3.2 0.00 0.00 0.00 90 1012.1
20260906054539 23 355 0.0 3.2 0.00 0.00 0.00 89 1012.0
20260906054040 23 355 0.0 0.0 0.00 0.00 0.00 89 1012.0
20260906053542 23 355 0.0 3.2 0.00 0.00 0.00 89 1012.0
20260906053039 23 355 0.0 3.2 0.00 0.00 0.00 89 1012.0
20260906052537 23 355 0.0 3.2 0.00 0.00 0.00 88 1011.9
20260906052037 23 19 0.0 3.2 0.00 0.00 0.00 88 1011.9
20260906051536 23 9 0.0 1.6 0.00 0.00 0.00 87 1011.9
20260906051036 23 28 0.0 1.6 0.00 0.00 0.00 87 1011.9
20260906050534 23 9 0.0 1.6 0.00 0.00 0.00 87 1011.8
20260906050033 23 9 0.0 0.0 0.00 0.00 0.00 87 1011.8
20260906045534 23 9 0.0 3.2 0.00 0.00 0.00 86 1011.7
20260906045031 24 9 0.0 3.2 0.00 0.00 0.00 86 1011.7
20260906044531 24 9 0.0 3.2 0.00 0.00 0.00 86 1011.7
20260906044031 24 5 0.0 3.2 0.00 0.00 0.00 86 1011.6
20260906043529 24 5 0.0 3.2 0.00 0.00 0.00 85 1011.6
20260906043029 24 5 0.0 1.6 0.00 0.00 0.00 85 1011.6
20260906042528 24 5 0.0 1.6 0.00 0.00 0.00 85 1011.4
20260906042027 24 5 0.0 0.0 0.00 0.00 0.00 83 1011.4
20260906041530 25 5 0.0 0.0 0.00 0.00 0.00 84 1011.3
20260906041024 25 5 0.0 0.0 0.00 0.00 0.00 84 1011.3
20260906040523 25 5 0.0 0.0 0.00 0.00 0.00 83 1011.1
20260906040032 25 10 0.0 0.0 0.00 0.00 0.00 83 1011.1
20260906035528 25 11 0.0 0.0 0.00 0.00 0.00 83 1011.1
20260906035022 25 9 0.0 0.0 0.00 0.00 0.00 82 1011.1
20260906034528 25 29 0.0 0.0 0.00 0.00 0.00 82 1011.2
20260906034022 25 5 0.0 0.0 0.00 0.00 0.00 82 1011.2
20260906033522 25 355 0.0 0.0 0.00 0.00 0.00 82 1011.2
20260906033022 25 9 0.0 0.0 0.00 0.00 0.00 81 1011.2
20260906032522 25 5 0.0 0.0 0.00 0.00 0.00 80 1011.2
20260906032022 25 9 0.0 0.0 0.00 0.00 0.00 82 1011.0
20260906031534 25 37 0.0 0.0 0.00 0.00 0.00 80 1011.2
20260906031022 26 15 0.0 0.0 0.00 0.00 0.00 79 1011.3
20260906030521 26 9 0.0 0.0 0.00 0.00 0.00 81 1011.2
20260906030021 26 10 0.0 0.0 0.00 0.00 0.00 79 1011.3
20260906025526 26 355 0.0 0.0 0.00 0.00 0.00 79 1011.2
20260906025021 26 9 0.0 0.0 0.00 0.00 0.00 79 1011.1
20260906024520 26 9 0.0 0.0 0.00 0.00 0.00 79 1011.1
20260906024021 26 360 0.0 3.2 0.00 0.00 0.00 79 1011.1
20260906023521 26 355 0.0 3.2 0.00 0.00 0.00 78 1011.1
20260906023020 26 13 0.0 3.2 0.00 0.00 0.00 76 1011.2
20260906022520 27 348 0.0 3.2 0.00 0.00 0.00 76 1011.1
20260906022020 27 355 0.0 3.2 0.00 0.00 0.00 75 1011.0
20260906021522 27 29 0.0 4.8 0.00 0.00 0.00 75 1010.9
20260906021024 27 74 0.0 4.8 0.00 0.00 0.00 77 1010.9
20260906020520 27 86 0.0 3.2 0.00 0.00 0.00 76 1010.8
20260906020022 27 84 0.0 3.2 0.00 0.00 0.00 76 1010.8
20260906015519 27 31 0.0 3.2 0.00 0.00 0.00 76 1010.8
20260906015019 27 61 0.0 3.2 0.00 0.00 0.00 75 1010.7
20260906014524 27 53 0.0 3.2 0.00 0.00 0.00 74 1010.6
20260906014021 28 351 0.0 3.2 0.00 0.00 0.00 75 1010.5
20260906013519 28 12 0.0 3.2 0.00 0.00 0.00 75 1010.4
20260906013019 28 24 0.0 3.2 0.00 0.00 0.00 77 1010.4
20260906012520 28 360 0.0 3.2 0.00 0.00 0.00 80 1010.3
20260906012022 28 66 0.0 0.0 0.00 0.00 0.00 81 1010.2
20260906011518 28 49 0.0 0.0 0.00 0.00 0.00 81 1010.0
20260906011017 28 342 0.0 0.0 0.00 0.00 0.00 81 1009.9
20260906010517 28 342 0.0 0.0 0.00 0.00 0.00 80 1009.7
20260906010017 28 342 0.0 0.0 0.00 0.00 0.00 80 1009.5
20260906005517 28 342 0.0 0.0 0.00 0.00 0.00 79 1009.6
20260906005017 28 342 0.0 0.0 0.00 0.00 0.00 80 1009.4
20260906004517 28 342 0.0 0.0 0.00 0.00 0.00 79 1009.4
20260906004017 29 342 0.0 0.0 0.00 0.00 0.00 78 1009.4
20260906003517 29 342 0.0 0.0 0.00 0.00 0.00 78 1009.4
20260906003017 29 342 0.0 0.0 0.00 0.00 0.00 79 1009.3
20260906002516 29 342 0.0 0.0 0.00 0.00 0.00 77 1009.3
20260906002016 29 342 0.0 0.0 0.00 0.00 0.00 78 1009.3
20260906001517 29 342 0.0 0.0 0.00 0.00 0.00 78 1009.3
20260906001020 29 342 0.0 0.0 0.00 0.00 0.00 77 1009.3
20260906000515 30 342 0.0 0.0 0.00 0.00 0.00 78 1009.2
20260906000016 30 342 0.0 0.0 0.00 0.00 0.00 77 1009.3
20260905235515 30 342 0.0 0.0 0.00 0.00 0.00 78 1009.3
20260905235019 30 342 0.0 0.0 0.00 0.00 0.00 74 1009.3
20260905234515 30 342 0.0 0.0 0.00 0.00 0.00 74 1009.2
20260905234015 30 342 0.0 0.0 0.00 0.00 0.00 74 1009.4
20260905233515 31 342 0.0 0.0 0.00 0.00 0.00 72 1009.4
20260905233017 31 342 0.0 0.0 0.00 0.00 0.00 71 1009.5
20260905232514 31 344 0.0 0.0 0.00 0.00 0.00 72 1009.5
20260905232015 31 344 0.0 0.0 0.00 0.00 0.00 72 1009.8
20260905231517 31 344 0.0 0.0 0.00 0.00 0.00 72 1009.8
20260905231014 31 340 0.0 0.0 0.00 0.00 0.00 68 1009.8
20260905230513 31 340 0.0 0.0 0.00 0.00 0.00 68 1009.8
20260905230013 31 344 0.0 0.0 0.00 0.00 0.00 67 1009.5
20260905225514 31 344 0.0 0.0 0.00 0.00 0.00 67 1009.4
20260905225013 31 345 0.0 0.0 0.00 0.00 0.00 67 1009.4
20260905224514 31 345 0.0 0.0 0.00 0.00 0.00 67 1009.4
20260905224018 31 345 0.0 0.0 0.00 0.00 0.00 67 1009.4
20260905223512 31 345 0.0 0.0 0.00 0.00 0.00 65 1009.1
20260905223013 31 345 0.0 0.0 0.00 0.00 0.00 66 1009.0
20260905222513 31 345 0.0 0.0 0.00 0.00 0.00 66 1009.1
20260905222012 31 345 0.0 0.0 0.00 0.00 0.00 66 1009.2
20260905221512 31 345 0.0 0.0 0.00 0.00 0.00 67 1009.2
20260905221011 31 345 0.0 0.0 0.00 0.00 0.00 66 1009.0
20260905220513 31 344 0.0 0.0 0.00 0.00 0.00 65 1009.2
20260905220013 31 344 0.0 0.0 0.00 0.00 0.00 63 1009.1
20260905215511 32 321 0.0 0.0 0.00 0.00 0.00 63 1009.2
20260905215009 32 321 0.0 0.0 0.00 0.00 0.00 64 1009.4
20260905214509 32 16 0.0 0.0 0.00 0.00 0.00 61 1009.4
20260905214009 32 9 0.0 0.0 0.00 0.00 0.00 61 1009.3
20260905213509 32 350 0.0 1.6 0.00 0.00 0.00 61 1009.3
20260905213010 32 350 0.0 3.2 0.00 0.00 0.00 60 1009.4
20260905212511 32 21 0.0 3.2 0.00 0.00 0.00 60 1009.3
20260905212008 32 315 0.0 3.2 0.00 0.00 0.00 59 1009.3
20260905211508 32 338 0.0 3.2 0.00 0.00 0.00 57 1009.3
20260905211010 32 311 0.0 3.2 0.00 0.00 0.00 58 1009.3
20260905210507 32 348 0.0 3.2 0.00 0.00 0.00 58 1009.3
20260905210006 32 303 0.0 6.4 0.00 0.00 0.00 58 1009.6
20260905205505 32 344 0.0 6.4 0.00 0.00 0.00 58 1009.6
20260905205005 32 360 0.0 3.2 0.00 0.00 0.00 57 1009.7
20260905204504 32 298 0.0 4.8 0.00 0.00 0.00 57 1009.9
20260905204003 32 319 0.0 4.8 0.00 0.00 0.00 58 1009.8
20260905203503 33 14 0.0 3.2 0.00 0.00 0.00 57 1010.0
20260905203003 33 288 0.0 3.2 0.00 0.00 0.00 58 1010.0
20260905202602 33 269 0.0 0.0 0.00 0.00 0.00 58 1010.0
20260905202003 33 310 0.0 3.2 0.00 0.00 0.00 57 1010.1
20260905201502 33 162 0.0 3.2 0.00 0.00 0.00 55 1010.1
20260905201003 33 336 0.0 3.2 0.00 0.00 0.00 56 1010.3
20260905200501 33 275 0.0 4.8 0.00 0.00 0.00 57 1010.2
20260905200001 33 355 0.0 4.8 0.00 0.00 0.00 55 1010.3
20260905195601 33 297 0.0 4.8 0.00 0.00 0.00 56 1010.3
20260905195100 33 322 0.0 4.8 0.00 0.00 0.00 56 1010.4
20260905194600 33 331 0.0 4.8 0.00 0.00 0.00 54 1010.4
20260905194103 33 301 0.0 3.2 0.00 0.00 0.00 54 1010.4
20260905193559 33 308 0.0 3.2 0.00 0.00 0.00 56 1010.4
20260905193058 33 297 0.0 3.2 0.00 0.00 0.00 55 1010.4
20260905192601 33 65 0.0 3.2 0.00 0.00 0.00 54 1010.4
20260905192058 33 311 0.0 3.2 0.00 0.00 0.00 54 1010.4
20260905191557 33 314 0.0 3.2 0.00 0.00 0.00 53 1010.5
20260905191058 33 319 0.0 3.2 0.00 0.00 0.00 53 1010.6
20260905190555 33 302 0.0 3.2 0.00 0.00 0.00 56 1010.7
20260905190059 33 298 0.0 3.2 0.00 0.00 0.00 55 1010.8
20260905185555 33 209 0.0 3.2 0.00 0.00 0.00 52 1010.8
20260905185059 33 254 0.0 3.2 0.00 0.00 0.00 51 1010.9
20260905184555 33 114 0.0 3.2 0.00 0.00 0.00 53 1011.0
20260905184057 33 290 0.0 3.2 0.00 0.00 0.00 52 1011.1
20260905183553 33 104 0.0 1.6 0.00 0.00 0.00 55 1011.3
20260905183052 33 299 0.0 0.0 0.00 0.00 0.00 57 1011.3
20260905182552 32 105 0.0 3.2 0.00 0.00 0.00 52 1011.4
20260905182054 33 199 0.0 3.2 0.00 0.00 0.00 51 1011.4
20260905181551 32 99 0.0 4.8 0.00 0.00 0.00 57 1011.3
20260905181050 32 277 0.0 4.8 0.00 0.00 0.00 55 1011.3
20260905180550 32 178 0.0 3.2 0.00 0.00 0.00 52 1011.4
20260905180109 32 229 0.0 3.2 0.00 0.00 0.00 54 1011.4
20260905175548 32 313 0.0 3.2 0.00 0.00 0.00 53 1011.4
20260905175046 32 291 0.0 0.0 0.00 0.00 0.00 55 1011.5
20260905174547 32 262 0.0 3.2 0.00 0.00 0.00 54 1011.7
20260905174046 32 221 0.0 3.2 0.00 0.00 0.00 55 1011.6
20260905173546 32 237 0.0 3.2 0.00 0.00 0.00 56 1011.6
20260905173108 32 117 0.0 3.2 0.00 0.00 0.00 55 1011.8
20260905172544 31 240 0.0 3.2 0.00 0.00 0.00 55 1011.8
20260905172043 31 150 0.0 3.2 0.00 0.00 0.00 55 1011.8
20260905171552 31 178 0.0 3.2 0.00 0.00 0.00 59 1012.0
20260905171040 31 284 0.0 4.8 0.00 0.00 0.00 57 1012.0
20260905170540 31 105 0.0 4.8 0.00 0.00 0.00 55 1012.2
20260905170040 31 160 0.0 4.8 0.00 0.00 0.00 58 1012.4
20260905165537 31 254 0.0 3.2 0.00 0.00 0.00 57 1012.4
20260905165036 30 179 0.0 3.2 0.00 0.00 0.00 58 1012.5
20260905164536 30 295 0.0 4.8 0.00 0.00 0.00 57 1012.5
20260905164036 30 104 0.0 4.8 0.00 0.00 0.00 57 1012.6
20260905163533 30 267 0.0 3.2 0.00 0.00 0.00 59 1012.6
20260905163032 30 264 0.0 3.2 0.00 0.00 0.00 57 1012.4
20260905162530 30 360 0.0 3.2 0.00 0.00 0.00 58 1012.3
20260905162030 29 311 0.0 3.2 0.00 0.00 0.00 63 1012.5
20260905161528 29 94 0.0 3.2 0.00 0.00 0.00 66 1012.4
20260905161028 28 112 0.0 4.8 0.00 0.00 0.00 65 1012.4
20260905160526 28 82 0.0 4.8 0.00 0.00 0.00 61 1012.5
20260905160044 28 269 0.0 3.2 0.00 0.00 0.00 63 1012.6
20260905155526 27 177 0.0 3.2 0.00 0.00 0.00 65 1012.7
20260905155021 27 138 0.0 3.2 0.00 0.00 0.00 66 1012.7
20260905154521 27 280 0.0 3.2 0.00 0.00 0.00 68 1012.8
20260905154023 27 250 0.0 3.2 0.00 0.00 0.00 68 1012.8
20260905153521 27 163 0.0 3.2 0.00 0.00 0.00 67 1012.7
20260905153022 27 149 0.0 3.2 0.00 0.00 0.00 66 1012.7
20260905152520 27 166 0.0 3.2 0.00 0.00 0.00 63 1012.8
20260905152023 27 120 0.0 3.2 0.00 0.00 0.00 65 1012.7
20260905151520 27 67 0.0 4.8 0.00 0.00 0.00 62 1012.8
20260905151020 27 105 0.0 4.8 0.00 0.00 0.00 61 1012.9
20260905150517 27 158 0.0 3.2 0.00 0.00 0.00 63 1012.8
20260905150017 27 192 0.0 3.2 0.00 0.00 0.00 63 1012.9
20260905145519 27 142 0.0 3.2 0.00 0.00 0.00 65 1012.9
20260905145014 27 203 0.0 8.0 0.00 0.00 0.00 66 1012.8
20260905144523 26 178 1.6 8.0 0.00 0.00 0.00 63 1012.8
20260905144018 26 126 0.0 4.8 0.00 0.00 0.00 64 1012.9
20260905143510 26 132 1.6 4.8 0.00 0.00 0.00 64 1013.0
20260905143010 26 129 0.0 4.8 0.00 0.00 0.00 70 1013.2
20260905142508 26 260 0.0 4.8 0.00 0.00 0.00 67 1013.2
20260905142007 26 109 0.0 4.8 0.00 0.00 0.00 67 1013.2
20260905141512 25 117 0.0 3.2 0.00 0.00 0.00 72 1013.2
20260905141005 25 148 0.0 3.2 0.00 0.00 0.00 69 1013.2
20260905140507 25 173 0.0 3.2 0.00 0.00 0.00 69 1013.3
20260905140014 25 150 0.0 3.2 0.00 0.00 0.00 69 1013.3
20260905135504 25 169 0.0 3.2 0.00 0.00 0.00 71 1013.4
20260905135005 25 175 0.0 3.2 0.00 0.00 0.00 70 1013.4
20260905134504 25 181 0.0 3.2 0.00 0.00 0.00 72 1013.4
20260905134003 25 156 0.0 3.2 0.00 0.00 0.00 74 1013.3
20260905133503 25 149 0.0 4.8 0.00 0.00 0.00 72 1013.3
20260905133007 25 132 0.0 4.8 0.00 0.00 0.00 73 1013.3
20260905132501 24 115 0.0 3.2 0.00 0.00 0.00 74 1013.5
20260905132001 24 153 0.0 3.2 0.00 0.00 0.00 73 1013.5
20260905131601 24 117 0.0 3.2 0.00 0.00 0.00 72 1013.5
20260905131059 24 105 0.0 3.2 0.00 0.00 0.00 74 1013.6
20260905130559 23 88 0.0 3.2 0.00 0.00 0.00 76 1013.6
20260905130059 23 107 0.0 3.2 0.00 0.00 0.00 77 1013.7
20260905125558 23 147 0.0 4.8 0.00 0.00 0.00 77 1013.5
20260905125057 23 115 0.0 4.8 0.00 0.00 0.00 78 1013.4
20260905124559 23 105 0.0 4.8 0.00 0.00 0.00 78 1013.4
20260905124056 23 128 0.0 3.2 0.00 0.00 0.00 81 1013.5
20260905123556 23 129 0.0 3.2 0.00 0.00 0.00 80 1013.7
20260905123103 23 117 0.0 3.2 0.00 0.00 0.00 81 1013.5
20260905122555 23 105 0.0 3.2 0.00 0.00 0.00 80 1013.5
20260905122056 23 110 0.0 4.8 0.00 0.00 0.00 81 1013.5
20260905121559 23 101 1.6 4.8 0.00 0.00 0.00 80 1013.6
20260905121053 23 96 0.0 4.8 0.00 0.00 0.00 81 1013.6
20260905120550 23 109 1.6 6.4 0.00 0.00 0.00 79 1013.4
20260905120100 23 102 3.2 6.4 0.00 0.00 0.00 79 1013.4
20260905115549 23 96 1.6 9.7 0.00 0.00 0.00 79 1013.5
20260905115051 23 107 1.6 9.7 0.00 0.00 0.00 79 1013.4
20260905114600 23 77 4.8 12.9 0.00 0.00 0.00 80 1013.4
20260905114046 24 144 3.2 12.9 0.00 0.00 0.00 83 1013.4
20260905113545 24 65 3.2 12.9 0.00 0.00 0.00 86 1013.2
20260905113054 24 80 4.8 12.9 0.00 0.00 0.00 90 1013.1
20260905112543 24 86 3.2 12.9 0.00 0.00 0.00 93 1012.9
20260905112042 24 91 3.2 6.4 0.00 0.00 0.00 93 1012.6
20260905111623 24 63 0.0 0.0 0.00 0.00 0.00 94 1012.2
20260905111041 24 9 0.0 0.0 0.00 0.00 0.00 93 1011.8
20260905110540 23 9 0.0 0.0 0.00 0.00 0.00 94 1011.7
20260905110039 23 9 0.0 0.0 0.00 0.00 0.00 93 1011.5
20260905105539 23 9 0.0 0.0 0.00 0.00 0.00 93 1011.4
20260905105038 24 9 0.0 0.0 0.00 0.00 0.00 93 1011.3
20260905104538 24 9 0.0 0.0 0.00 0.00 0.00 93 1011.3
20260905104038 24 9 0.0 0.0 0.00 0.00 0.00 92 1011.3
20260905103538 24 9 0.0 0.0 0.00 0.00 0.00 92 1011.3
20260905103039 24 9 0.0 0.0 0.00 0.00 0.00 92 1011.4
20260905102540 24 9 0.0 0.0 0.00 0.00 0.00 92 1011.5
20260905102038 24 5 0.0 0.0 0.00 0.00 0.00 92 1011.4
20260905101541 24 9 0.0 0.0 0.00 0.00 0.00 93 1011.5
20260905101036 24 9 0.0 0.0 0.00 0.00 0.00 93 1011.6
20260905100536 24 338 0.0 0.0 0.00 0.00 0.00 92 1011.5
20260905100036 24 338 0.0 0.0 0.00 0.00 0.00 91 1011.4
20260905095535 24 338 0.0 0.0 0.00 0.00 0.00 91 1011.3
20260905095035 24 338 0.0 0.0 0.00 0.00 0.00 91 1011.3
20260905094535 24 338 0.0 0.0 0.00 0.00 0.00 91 1011.3
20260905094036 24 338 0.0 0.0 0.00 0.00 0.00 91 1011.4
20260905093534 24 338 0.0 0.0 0.00 0.00 0.00 91 1011.4
20260905093039 24 338 0.0 0.0 0.00 0.00 0.00 91 1011.3
20260905092534 24 338 0.0 0.0 0.00 0.00 0.00 91 1011.3
20260905092033 25 338 0.0 0.0 0.00 0.00 0.00 91 1011.3
20260905091533 25 338 0.0 0.0 0.00 0.00 0.00 91 1011.3
20260905091032 25 338 0.0 0.0 0.00 0.00 0.00 91 1011.3
20260905090532 25 338 0.0 0.0 0.00 0.00 0.00 91 1011.3
20260905090032 25 338 0.0 0.0 0.00 0.00 0.00 91 1011.3
20260905085532 25 338 0.0 0.0 0.00 0.00 0.00 89 1011.1
20260905085032 25 338 0.0 0.0 0.00 0.00 0.00 90 1011.2
20260905084533 24 338 0.0 0.0 0.00 0.00 0.00 90 1011.1
20260905084031 24 338 0.0 0.0 0.00 0.00 0.00 90 1011.0
20260905083531 25 338 0.0 0.0 0.00 0.00 0.00 90 1010.9
20260905083031 25 338 0.0 0.0 0.00 0.00 0.00 90 1011.0
20260905082531 25 338 0.0 0.0 0.00 0.00 0.00 90 1011.0
20260905082031 25 338 0.0 0.0 0.00 0.00 0.00 90 1011.0
20260905081531 25 338 0.0 0.0 0.00 0.00 0.00 91 1011.0
20260905081033 25 338 0.0 0.0 0.00 0.00 0.00 91 1011.0